Location: Akdamlar
(36.8729°N, 30.5187°E)
Time: 19:48:29
(UTC+00:00)

ATLAS 2AS CENTAUR R/B - Pass Details

Date: 18 September 2020
Orbit: 939 x 1273 km, 63.7° (Epoch: 19 October)

Event Time Altitude Azimuth Distance (km) Brightness Sun altitude
Rises 19:10:57 0° 219° (SW) 4,161 5.8 -36.5°
Reaches altitude 10° 19:13:43 10° 222° (SW) 3,222 5.2 -37.0°
Enters shadow 19:16:57 27° 229° (SW) 2,200 4.3 -37.5°
Exits shadow 19:24:45 39° 13° (NNE) 1,820 3.9 -38.7°
Drops below altitude 10° 19:29:28 10° 27° (NNE) 3,247 5.3 -39.4°
Sets 19:32:16 0° 30° (NNE) 4,195 5.9 -39.9°
